TimeMDT,TemperatureF,Dew PointF,Humidity,Sea Level PressureIn,VisibilityMPH,Wind Direction,Wind SpeedMPH,Gust SpeedMPH,PrecipitationIn,Events,Conditions,WindDirDegrees,DateUTC
12:53 AM,48.9,30.9,50,29.96,10.0,NNE,6.9,-,N/A,,Mostly Cloudy,20,2013-10-02 06:53:00
1:53 AM,46.9,35.1,63,30.00,10.0,North,10.4,-,N/A,,Scattered Clouds,360,2013-10-02 07:53:00
2:53 AM,45.0,36.0,71,30.02,10.0,North,9.2,-,N/A,,Mostly Cloudy,10,2013-10-02 08:53:00
3:53 AM,45.0,37.9,76,30.04,10.0,WNW,3.5,-,N/A,,Overcast,300,2013-10-02 09:53:00
4:53 AM,45.0,39.0,80,30.05,10.0,South,4.6,-,0.00,,Overcast,180,2013-10-02 10:53:00
5:53 AM,45.0,37.9,76,30.05,10.0,South,9.2,-,0.00,Rain,Light Rain,180,2013-10-02 11:53:00
6:53 AM,45.0,37.9,76,30.06,10.0,SSW,9.2,-,0.00,,Mostly Cloudy,210,2013-10-02 12:53:00
7:53 AM,45.0,37.0,74,30.08,10.0,SW,8.1,-,N/A,,Partly Cloudy,230,2013-10-02 13:53:00
8:53 AM,48.0,37.9,68,30.10,10.0,West,6.9,-,N/A,,Partly Cloudy,280,2013-10-02 14:53:00
9:53 AM,51.1,30.0,44,30.09,10.0,NW,13.8,-,N/A,,Partly Cloudy,320,2013-10-02 15:53:00
10:53 AM,53.1,28.9,40,30.09,10.0,NNW,12.7,-,N/A,,Partly Cloudy,340,2013-10-02 16:53:00
11:53 AM,55.0,28.0,35,30.07,10.0,North,15.0,-,N/A,,Partly Cloudy,360,2013-10-02 17:53:00
12:53 PM,55.0,27.0,34,30.06,10.0,NNW,9.2,-,N/A,,Partly Cloudy,330,2013-10-02 18:53:00
1:53 PM,55.9,26.1,32,30.03,10.0,NNE,8.1,-,N/A,,Partly Cloudy,20,2013-10-02 19:53:00
2:53 PM,55.9,26.1,32,30.02,10.0,SE,6.9,-,N/A,,Partly Cloudy,130,2013-10-02 20:53:00
3:53 PM,55.0,28.0,35,30.00,10.0,ENE,5.8,-,N/A,,Partly Cloudy,70,2013-10-02 21:53:00
4:53 PM,55.0,30.0,38,29.99,10.0,NE,9.2,-,N/A,,Partly Cloudy,50,2013-10-02 22:53:00
5:53 PM,54.0,32.0,43,29.99,10.0,ENE,9.2,-,N/A,,Scattered Clouds,70,2013-10-02 23:53:00
6:53 PM,53.1,33.1,47,29.98,10.0,ENE,9.2,-,N/A,,Mostly Cloudy,60,2013-10-03 00:53:00
7:53 PM,51.1,34.0,52,29.99,10.0,NE,9.2,-,N/A,,Overcast,50,2013-10-03 01:53:00
8:53 PM,50.0,35.1,57,29.98,10.0,NE,9.2,-,N/A,,Overcast,50,2013-10-03 02:53:00
9:53 PM,50.0,35.1,57,29.98,10.0,ENE,12.7,-,0.00,Rain,Light Rain,70,2013-10-03 03:53:00
10:53 PM,48.9,36.0,61,29.98,10.0,ENE,11.5,-,0.00,Rain,Light Rain,60,2013-10-03 04:53:00
11:53 PM,45.0,39.0,80,29.98,5.0,ENE,15.0,-,0.06,Rain,Rain,60,2013-10-03 05:53:00
11:58 PM,45.0,39.9,82,29.98,6.0,NE,15.0,-,0.00,Rain,Light Rain,50,2013-10-03 05:58:00